Regional Weather Roundup
Issued by NWS Burlington, VT

Home | Current Version | Previous Version | Text Only | Print | Product List | Glossary On
Versions: 1 2 3 4 5 6 7 8 9 10 11 12 13 14 15 16 17 18 19 20 21 22 23 24 25 26 27 28 29 30 31 32 33 34 35 36 37 38 39 40 41 42 43 44 45 46 47 48 49 50
000
ASUS41 KBTV 220830
RWRBTV
VERMONT REGIONAL WEATHER ROUNDUP
NATIONAL WEATHER SERVICE BURLINGTON VT
400 AM EDT FRI MAY 22 2015

NOTE: "FAIR" INDICATES FEW OR NO CLOUDS BELOW 12,000 FEET WITH NO
SIGNIFICANT WEATHER AND/OR OBSTRUCTIONS TO VISIBILITY.

* THESE REPORTS ARE NOT UNDER NWS QUALITY CONTROL AND/OR DO NOT
  REPORT WEATHER SUCH AS PRECIPITATION AND FOG.

VTZ001>019-220900-
_____VERMONT_____


CITY           SKY/WX    TMP DP  RH WIND       PRES   REMARKS
BURLINGTON     CLOUDY    50  38  63 SE3       29.78S
MONTPELIER     CLOUDY    52  32  46 CALM      29.81F
MORRISVILLE    CLOUDY    50  38  63 CALM      29.79S
ST. JOHNSBURY*   N/A     50  43  77 MISG      29.77S
LYNDONVILLE*     N/A     48  39  72 CALM      29.79S
MIDDLEBURY*      N/A     50  35  56 SE3       29.79S
RUTLAND*       CLOUDY    46  37  71 SE3       29.81R
SPRINGFIELD    CLOUDY    50  42  74 CALM      29.80S
HIGHGATE*      DRIZZLE   50  37  62 S3        29.75F
NEWPORT*         N/A     49  32  52 S5        29.78R
BENNINGTON     CLOUDY    50  42  74 SE3       29.82S
SUTTON*          N/A     48 N/A N/A MISG        N/A
GALLUP MILLS*    N/A     43 N/A N/A MISG        N/A
MT. MANSFIELD*   N/A     39 N/A N/A CALM        N/A

_____LAKE CHAMPLAIN_____


CITY           SKY/WX    TMP DP  RH WIND       PRES   REMARKS
BURTON ISLAND*   N/A     55  41  58 S7          N/A
COLCHESTER RF*   N/A     57  34  41 W6          N/A
DIAMOND ISL*     N/A     54  39  58 S7          N/A

$$

NYZ007-026>031-035-052-083-220900-
_____NORTHERN NEW YORK_____


CITY           SKY/WX    TMP DP  RH WIND       PRES   REMARKS
PLATTSBURGH    CLOUDY    55  33  43 CALM      29.76S
SARANAC LAKE   PTSUNNY   45  34  65 S3        29.77F
MASSENA        CLOUDY    52  37  56 SW8       29.79R
OGDENSBURG*    MOSUNNY   50  43  76 N10G18    29.82R
POTSDAM*       CLOUDY   -24 -29  76 W9        29.81R
STARK FALLS*     N/A     50 N/A N/A W6          N/A
WATERTOWN      CLOUDY    51  37  58 W12       29.82S
FT DRUM        CLOUDY    52  36  54 W10G21    29.80S
ALBANY         CLOUDY    55  39  54 W7        29.83S
GLENS FALLS    MOSUNNY   49  42  77 CALM      29.81R

$$
NHZ002-005-011-220900-
_____NEW HAMPSHIRE_____


CITY           SKY/WX    TMP DP  RH WIND       PRES   REMARKS
LEBANON        CLOUDY    50  42  74 CALM      29.79R
KEENE          CLOUDY    50  43  76 S7        29.82S
MT WASHINGTON  FLURRIES  30  28  93 W26         N/A  WCI  16
PLYMOUTH       CLOUDY    49  46  89 CALM      29.78R
WHITEFIELD     CLOUDY    47  42  83 CALM      29.79R

$$

_____REGIONAL QUEBEC LOCATIONS_____


CITY           SKY/WX    TMP DP  RH WIND       PRES   REMARKS
MONTREAL       PTSUNNY   50  43  76 NE6       29.75S
QUEBEC CITY    PTSUNNY   48  43  81 E6        29.73F
SHERBROOKE     MOSUNNY   41  37  87 CALM      29.75S

_____REGIONAL ONTARIO LOCATIONS_____


CITY           SKY/WX    TMP DP  RH WIND       PRES   REMARKS
OTTAWA         PTSUNNY   46  34  61 NW16G22   29.83R

______KEY______
VSB  - VISIBILITY IN MILES
WCI  - WIND CHILL INDEX
HX   - HEAT INDEX
$$
NNNN


USA.gov is the U.S. government's official web portal to all federal, state and local government web resources and services.